CW4517 Weather Reports


Display with metric or nautical units.
time (UTC)temp
F
wind
direction
speed
MPH
gust
MPH
rain 1hr
in
rain 24hr
in
rain mn
in
humidity
%
barometer
mb
20260906182932 78 63 7.0 13.0 0.00 0.00 0.00 61 1015.6
20260906182643 78 85 8.0 16.0 0.00 0.00 0.00 62 1015.6
20260906181922 78 51 8.0 17.0 0.00 0.00 0.00 63 1015.6
20260906181412 78 57 8.0 17.0 0.00 0.00 0.00 63 1015.7
20260906180905 78 74 6.0 16.0 0.00 0.00 0.00 63 1015.7
20260906180359 78 74 6.0 16.0 0.00 0.00 0.00 64 1015.7
20260906175852 78 34 8.0 17.0 0.00 0.00 0.00 62 1015.8
20260906175353 78 55 9.0 17.0 0.00 0.00 0.00 62 1015.8
20260906174833 79 95 7.0 15.0 0.00 0.00 0.00 60 1015.8
20260906174333 79 126 5.0 15.0 0.00 0.00 0.00 60 1016.0
20260906173832 79 71 5.0 13.0 0.00 0.00 0.00 61 1016.0
20260906173557 79 78 4.0 11.0 0.00 0.00 0.00 61 1016.0
20260906172833 79 355 4.0 11.0 0.00 0.00 0.00 63 1016.1
20260906172333 78 146 5.0 16.0 0.00 0.00 0.00 62 1016.1
20260906171833 78 60 6.0 16.0 0.00 0.00 0.00 63 1016.1
20260906171333 79 11 6.0 13.0 0.00 0.00 0.00 62 1016.1
20260906170832 79 43 5.0 13.0 0.00 0.00 0.00 62 1016.1
20260906170327 79 98 4.0 13.0 0.00 0.00 0.00 62 1016.1
20260906165819 78 65 6.0 13.0 0.00 0.00 0.00 61 1016.1
20260906165314 78 272 7.0 13.0 0.00 0.00 0.00 62 1016.1
20260906164807 78 53 7.0 15.0 0.00 0.00 0.00 64 1016.1
20260906164302 78 34 7.0 15.0 0.00 0.00 0.00 62 1016.1
20260906163756 78 79 5.0 13.0 0.00 0.00 0.00 62 1016.1
20260906163249 78 69 5.0 12.0 0.00 0.00 0.00 62 1016.1
20260906162739 78 49 5.0 12.0 0.00 0.00 0.00 65 1016.2
20260906162236 78 54 5.0 12.0 0.00 0.00 0.00 67 1016.2
20260906161730 77 19 5.0 14.0 0.00 0.00 0.00 67 1016.2
20260906161224 77 65 5.0 14.0 0.00 0.00 0.00 66 1016.1
20260906160718 78 104 5.0 10.0 0.00 0.00 0.00 67 1016.1
20260906160430 78 49 4.0 9.0 0.00 0.00 0.00 67 1016.1
20260906155934 77 86 4.0 9.0 0.00 0.00 0.00 68 1016.1
20260906155200 77 46 4.0 9.0 0.00 0.00 0.00 67 1016.1
20260906154917 76 80 4.0 9.0 0.00 0.00 0.00 70 1016.1
20260906154414 76 19 3.0 9.0 0.00 0.00 0.00 70 1016.1
20260906153643 76 54 4.0 9.0 0.00 0.00 0.00 71 1016.1
20260906153401 76 132 4.0 9.0 0.00 0.00 0.00 72 1016.1
20260906152625 76 92 4.0 9.0 0.00 0.00 0.00 73 1016.2
20260906152124 76 92 3.0 7.0 0.00 0.00 0.00 75 1016.2
20260906151619 75 25 3.0 6.0 0.00 0.00 0.00 75 1016.2
20260906151112 75 80 3.0 7.0 0.00 0.00 0.00 76 1016.1
20260906150608 75 56 2.0 7.0 0.00 0.00 0.00 77 1016.1
20260906150056 75 58 2.0 8.0 0.00 0.00 0.00 77 1016.1
20260906145556 75 52 3.0 8.0 0.00 0.00 0.00 76 1016.0
20260906145050 75 124 4.0 9.0 0.00 0.00 0.00 76 1016.0
20260906144542 75 59 3.0 9.0 0.00 0.00 0.00 76 1016.0
20260906144037 75 80 2.0 6.0 0.00 0.00 0.00 77 1015.7
20260906143527 75 44 3.0 8.0 0.00 0.00 0.00 78 1015.7
20260906143024 75 53 3.0 8.0 0.00 0.00 0.00 77 1015.7
20260906142518 75 76 3.0 8.0 0.00 0.00 0.00 78 1015.6
20260906142011 74 126 3.0 7.0 0.00 0.00 0.00 78 1015.6
20260906141723 74 57 3.0 7.0 0.00 0.00 0.00 80 1015.6
20260906141224 74 5 2.0 7.0 0.00 0.00 0.00 79 1015.7
20260906140454 74 63 2.0 7.0 0.00 0.00 0.00 80 1015.7
20260906135948 74 94 2.0 8.0 0.00 0.00 0.00 80 1015.7
20260906135441 73 71 2.0 8.0 0.00 0.00 0.00 81 1015.7
20260906134931 73 91 2.0 8.0 0.00 0.00 0.00 81 1015.7
20260906134419 73 151 2.0 8.0 0.00 0.00 0.00 81 1015.6
20260906133909 73 82 2.0 8.0 0.00 0.00 0.00 81 1015.6
20260906133408 73 88 2.0 7.0 0.00 0.00 0.00 81 1015.6
20260906132909 73 92 2.0 7.0 0.00 0.00 0.00 82 1015.7
20260906132407 73 78 2.0 7.0 0.00 0.00 0.00 83 1015.7
20260906131909 72 64 2.0 7.0 0.00 0.00 0.00 83 1015.7
20260906131409 72 87 3.0 8.0 0.00 0.00 0.00 83 1015.6
20260906130908 72 67 3.0 8.0 0.00 0.00 0.00 84 1015.6
20260906130637 72 89 2.0 6.0 0.00 0.00 0.00 84 1015.6
20260906125917 72 146 2.0 5.0 0.00 0.00 0.00 85 1015.5
20260906125404 71 151 1.0 5.0 0.00 0.00 0.00 86 1015.5
20260906124858 71 39 1.0 4.0 0.00 0.00 0.00 87 1015.5
20260906124352 71 119 2.0 5.0 0.00 0.00 0.00 87 1015.3
20260906123845 71 127 2.0 6.0 0.00 0.00 0.00 88 1015.3
20260906123342 70 69 2.0 8.0 0.00 0.00 0.00 89 1015.3
20260906122835 70 74 1.0 4.0 0.00 0.00 0.00 90 1015.0
20260906122540 70 46 1.0 4.0 0.00 0.00 0.00 91 1015.0
20260906121822 70 67 2.0 4.0 0.00 0.00 0.00 91 1015.0
20260906121317 69 59 1.0 5.0 0.00 0.00 0.00 92 1014.6
20260906120810 69 50 1.0 5.0 0.00 0.00 0.00 92 1014.6
20260906120527 69 34 1.0 3.0 0.00 0.00 0.00 93 1014.6
20260906115756 69 48 0.0 3.0 0.00 0.00 0.00 93 1014.5
20260906115244 69 52 0.0 0.0 0.00 0.00 0.00 93 1014.5
20260906114832 69 52 0.0 0.0 0.00 0.00 0.00 93 1014.5
20260906110652 68 52 0.0 0.0 0.00 0.00 0.00 93 1013.9
20260906110145 69 52 0.0 0.0 0.00 0.00 0.00 92 1013.9
20260906105645 69 52 0.0 0.0 0.00 0.00 0.00 92 1013.9
20260906105139 69 52 0.0 0.0 0.00 0.00 0.00 92 1013.9
20260906104639 69 52 0.0 0.0 0.00 0.00 0.00 92 1013.9
20260906104139 69 52 0.0 0.0 0.00 0.00 0.00 92 1013.7
20260906103907 69 52 0.0 0.0 0.00 0.00 0.00 92 1013.7
20260906103137 69 52 0.0 0.0 0.00 0.00 0.00 92 1013.7
20260906102637 69 52 0.0 0.0 0.00 0.00 0.00 92 1013.7
20260906102137 69 52 0.0 0.0 0.00 0.00 0.00 92 1013.7
20260906101900 69 52 0.0 0.0 0.00 0.00 0.00 92 1013.7
20260906101135 69 52 0.0 0.0 0.00 0.00 0.00 92 1013.4
20260906100635 69 52 0.0 0.0 0.00 0.00 0.00 92 1013.4
20260906100134 69 52 0.0 0.0 0.00 0.00 0.00 92 1013.4
20260906095634 69 52 0.0 0.0 0.00 0.00 0.00 92 1013.5
20260906095352 69 52 0.0 0.0 0.00 0.00 0.00 91 1013.5
20260906094631 69 52 0.0 2.0 0.00 0.00 0.00 91 1013.5
20260906094132 69 52 0.0 2.0 0.00 0.00 0.00 91 1013.4
20260906093630 70 52 0.0 1.0 0.00 0.00 0.00 91 1013.4
20260906093128 70 52 1.0 2.0 0.00 0.00 0.00 91 1013.4
20260906092632 70 52 1.0 2.0 0.00 0.00 0.00 91 1013.3
20260906092126 70 53 0.0 2.0 0.00 0.00 0.00 91 1013.3
20260906091613 70 46 0.0 2.0 0.00 0.00 0.00 90 1013.3
20260906091113 70 46 1.0 2.0 0.00 0.00 0.00 90 1013.3
20260906090613 70 50 1.0 3.0 0.00 0.00 0.00 90 1013.3
20260906090112 70 59 1.0 3.0 0.00 0.00 0.00 90 1013.3
20260906090057 71 61 1.0 3.0 0.00 0.00 0.00 90 1013.2
20260906085114 71 49 1.0 3.0 0.00 0.00 0.00 90 1013.2
20260906084613 71 47 0.0 3.0 0.00 0.00 0.00 90 1013.2
20260906084112 71 40 0.0 0.0 0.00 0.00 0.00 90 1013.3
20260906083613 71 63 0.0 1.0 0.00 0.00 0.00 89 1013.3
20260906083110 71 58 0.0 4.0 0.00 0.00 0.00 89 1013.3
20260906082557 72 47 1.0 4.0 0.00 0.00 0.00 89 1013.4
20260906082058 72 56 2.0 5.0 0.00 0.00 0.00 89 1013.4
20260906081551 72 78 2.0 7.0 0.00 0.00 0.00 89 1013.4
20260906081044 72 55 2.0 7.0 0.00 0.00 0.00 88 1013.5
20260906080539 72 60 2.0 5.0 0.00 0.00 0.00 88 1013.5
20260906080028 72 49 1.0 4.0 0.00 0.00 0.00 88 1013.5
20260906075527 72 26 2.0 5.0 0.00 0.00 0.00 88 1013.5
20260906075508 73 26 2.0 5.0 0.00 0.00 0.00 88 1013.5
20260906074514 73 61 2.0 4.0 0.00 0.00 0.00 88 1013.5
20260906074008 73 28 1.0 4.0 0.00 0.00 0.00 87 1013.5
20260906073504 73 58 1.0 7.0 0.00 0.00 0.00 87 1013.5
20260906072957 72 17 2.0 7.0 0.00 0.00 0.00 87 1013.4
20260906072447 72 64 2.0 5.0 0.00 0.00 0.00 87 1013.4
20260906072203 72 29 2.0 7.0 0.00 0.00 0.00 88 1013.4
20260906071439 72 72 2.0 7.0 0.00 0.00 0.00 88 1013.5
20260906071153 72 51 2.0 5.0 0.00 0.00 0.00 88 1013.5
20260906070426 72 50 2.0 8.0 0.00 0.00 0.00 88 1013.5
20260906065915 72 61 2.0 8.0 0.00 0.00 0.00 88 1013.5
20260906065414 72 24 3.0 7.0 0.00 0.00 0.00 88 1013.5
20260906064909 72 41 3.0 8.0 0.00 0.00 0.00 88 1013.5
20260906064403 72 69 3.0 9.0 0.00 0.00 0.00 88 1013.5
20260906063857 72 77 4.0 11.0 0.00 0.00 0.00 88 1013.5
20260906063351 73 63 4.0 11.0 0.00 0.00 0.00 88 1013.5
20260906062846 73 28 4.0 9.0 0.00 0.00 0.00 88 1013.5
20260906062336 73 81 4.0 9.0 0.00 0.00 0.00 88 1013.5
20260906061836 73 58 4.0 9.0 0.00 0.00 0.00 88 1013.5
20260906061336 73 59 4.0 8.0 0.00 0.00 0.00 88 1013.4
20260906060836 73 61 3.0 8.0 0.00 0.00 0.00 88 1013.4
20260906060336 73 51 3.0 8.0 0.00 0.00 0.00 88 1013.4
20260906055836 73 45 3.0 8.0 0.00 0.00 0.00 87 1013.4
20260906055337 73 38 3.0 5.0 0.00 0.00 0.00 87 1013.4
20260906055100 73 5 3.0 7.0 0.00 0.00 0.00 87 1013.4
20260906054334 73 55 3.0 10.0 0.00 0.00 0.00 87 1013.3
20260906053835 73 18 3.0 10.0 0.00 0.00 0.00 87 1013.3
20260906053335 73 32 3.0 8.0 0.00 0.00 0.00 87 1013.3
20260906052835 73 57 3.0 8.0 0.00 0.00 0.00 87 1013.1
20260906052334 73 32 3.0 6.0 0.00 0.00 0.00 87 1013.1
20260906051837 73 32 4.0 8.0 0.00 0.00 0.00 87 1013.1
20260906051337 73 17 3.0 8.0 0.00 0.00 0.00 87 1012.9
20260906051105 73 15 4.0 8.0 0.00 0.00 0.00 87 1012.9
20260906050331 73 65 5.0 10.0 0.00 0.00 0.00 87 1012.9
20260906050046 73 61 5.0 10.0 0.00 0.00 0.00 87 1012.7
20260906045317 73 78 5.0 11.0 0.00 0.00 0.00 87 1012.7
20260906044808 73 81 5.0 11.0 0.00 0.00 0.00 87 1012.7
20260906044524 73 59 5.0 10.0 0.00 0.00 0.00 87 1012.6
20260906044023 73 85 4.0 11.0 0.00 0.00 0.00 87 1012.6
20260906043252 73 61 4.0 11.0 0.00 0.00 0.00 87 1012.6
20260906043015 73 47 5.0 11.0 0.00 0.00 0.00 87 1012.5
20260906042240 73 15 5.0 14.0 0.00 0.00 0.00 87 1012.5
20260906041732 73 78 5.0 14.0 0.00 0.00 0.00 87 1012.5
20260906041224 73 65 5.0 10.0 0.00 0.00 0.00 87 1012.5
20260906040714 73 59 6.0 15.0 0.00 0.00 0.00 87 1012.5
20260906040206 73 37 6.0 15.0 0.00 0.00 0.00 87 1012.5
20260906035706 73 52 6.0 12.0 0.00 0.00 0.00 87 1012.4
20260906035205 73 52 6.0 12.0 0.00 0.00 0.00 87 1012.4
20260906034705 73 72 6.0 12.0 0.00 0.00 0.00 87 1012.4
20260906034206 73 46 5.0 12.0 0.00 0.00 0.00 87 1012.4
20260906033706 73 83 6.0 17.0 0.00 0.00 0.00 87 1012.4
20260906033208 73 107 6.0 17.0 0.00 0.00 0.00 87 1012.4
20260906032709 73 49 5.0 11.0 0.00 0.00 0.00 86 1012.4
20260906032207 73 60 7.0 13.0 0.00 0.00 0.00 86 1012.4
20260906031929 73 45 8.0 15.0 0.00 0.00 0.00 86 1012.4
20260906031159 73 46 6.0 15.0 0.00 0.00 0.00 87 1012.3
20260906030652 73 14 5.0 14.0 0.00 0.00 0.00 87 1012.3
20260906030643 73 36 6.0 14.0 0.00 0.00 0.00 87 1012.3
20260906025635 73 77 6.0 14.0 0.00 0.00 0.00 87 1012.3
20260906025134 73 85 6.0 14.0 0.00 0.00 0.00 87 1012.3
20260906024628 73 86 5.0 14.0 0.00 0.00 0.00 87 1012.3
20260906024122 73 47 4.0 11.0 0.00 0.00 0.00 86 1012.3
20260906023616 73 35 4.0 12.0 0.00 0.00 0.00 86 1012.3
20260906023111 73 52 5.0 12.0 0.00 0.00 0.00 86 1012.3
20260906022605 73 105 5.0 12.0 0.00 0.00 0.00 86 1012.4
20260906022055 73 355 6.0 12.0 0.00 0.00 0.00 86 1012.4
20260906021554 73 24 6.0 12.0 0.00 0.00 0.00 86 1012.4
20260906021048 73 71 5.0 11.0 0.00 0.00 0.00 86 1012.4
20260906020541 73 46 6.0 11.0 0.00 0.00 0.00 86 1012.4
20260906020036 73 23 5.0 12.0 0.00 0.00 0.00 86 1012.4
20260906015525 73 35 5.0 14.0 0.00 0.00 0.00 86 1012.4
20260906015023 73 36 5.0 14.0 0.00 0.00 0.00 86 1012.4
20260906014517 73 28 5.0 13.0 0.00 0.00 0.00 86 1012.4
20260906014009 73 64 6.0 14.0 0.00 0.00 0.00 86 1012.4
20260906013504 73 66 6.0 17.0 0.00 0.00 0.00 86 1012.4
20260906012958 73 45 7.0 17.0 0.00 0.00 0.00 86 1012.4
20260906012452 73 71 7.0 16.0 0.00 0.00 0.00 86 1012.4
20260906012203 73 5 7.0 16.0 0.00 0.00 0.00 85 1012.4
20260906011658 73 50 6.0 16.0 0.00 0.00 0.00 85 1012.3
20260906010934 73 80 4.0 12.0 0.00 0.00 0.00 84 1012.3
20260906010427 73 59 5.0 12.0 0.00 0.00 0.00 84 1012.3
20260906005923 73 355 5.0 13.0 0.00 0.00 0.00 83 1011.8
20260906005411 73 89 6.0 15.0 0.00 0.00 0.00 83 1011.8
20260906004909 73 30 6.0 15.0 0.00 0.00 0.00 83 1011.8
20260906004404 73 52 7.0 16.0 0.00 0.00 0.00 83 1011.7
20260906003858 73 84 7.0 16.0 0.00 0.00 0.00 82 1011.7
20260906003351 74 33 7.0 16.0 0.00 0.00 0.00 82 1011.7
20260906002845 74 57 7.0 16.0 0.00 0.00 0.00 82 1011.7
20260906002341 74 26 8.0 16.0 0.00 0.00 0.00 82 1011.7
20260906002049 74 64 7.0 14.0 0.00 0.00 0.00 82 1011.7
20260906001328 75 24 6.0 13.0 0.00 0.00 0.00 83 1011.8
20260906000816 75 342 5.0 13.0 0.00 0.00 0.00 82 1011.8
20260906000311 75 52 5.0 10.0 0.00 0.00 0.00 83 1011.8
20260906000031 75 37 6.0 13.0 0.00 0.00 0.00 83 1011.5
20260905235311 76 73 6.0 13.0 0.00 0.00 0.00 82 1011.5
20260905234811 76 46 5.0 11.0 0.00 0.00 0.00 82 1011.5
20260905234311 76 25 5.0 13.0 0.00 0.00 0.00 81 1011.4
20260905233811 76 100 5.0 13.0 0.00 0.00 0.00 80 1011.4
20260905233310 77 0 4.0 11.0 0.00 0.00 0.00 80 1011.4
20260905232810 77 82 5.0 13.0 0.00 0.00 0.00 80 1011.3
20260905232310 77 82 6.0 13.0 0.00 0.00 0.00 80 1011.3
20260905231806 77 5 7.0 14.0 0.00 0.00 0.00 79 1011.3
20260905231252 78 46 6.0 14.0 0.00 0.00 0.00 79 1011.0
20260905230742 78 49 6.0 13.0 0.00 0.00 0.00 78 1011.0
20260905230457 78 74 6.0 13.0 0.00 0.00 0.00 78 1011.0
20260905225952 79 46 6.0 13.0 0.00 0.00 0.00 78 1010.8
20260905225219 79 53 6.0 11.0 0.00 0.00 0.00 77 1010.8
20260905224716 79 94 6.0 11.0 0.00 0.00 0.00 77 1010.8
20260905224426 79 0 5.0 10.0 0.00 0.00 0.00 77 1010.9
20260905223924 79 37 4.0 12.0 0.00 0.00 0.00 78 1010.9
20260905223158 78 43 4.0 12.0 0.00 0.00 0.00 78 1010.9
20260905222652 78 63 5.0 10.0 0.00 0.00 0.00 78 1011.1
20260905222634 79 17 6.0 14.0 0.00 0.00 0.00 78 1011.1
20260905221636 79 48 6.0 14.0 0.00 0.00 0.00 77 1011.1
20260905221134 80 53 5.0 11.0 0.00 0.00 0.00 76 1011.0
20260905220629 80 128 4.0 11.0 0.00 0.00 0.00 76 1011.0
20260905220124 79 338 3.0 9.0 0.00 0.00 0.00 77 1011.0
20260905215617 79 47 4.0 11.0 0.00 0.00 0.00 77 1010.9
20260905215108 79 5 6.0 14.0 0.00 0.00 0.00 78 1010.9
20260905214830 79 35 6.0 14.0 0.00 0.00 0.00 77 1010.9
20260905214059 79 30 5.0 13.0 0.00 0.00 0.00 78 1010.9
20260905213552 79 41 6.0 12.0 0.00 0.00 0.00 78 1010.9
20260905213313 79 34 5.0 13.0 0.00 0.00 0.00 78 1010.9
20260905212540 79 49 6.0 13.0 0.00 0.00 0.00 77 1010.9
20260905212034 79 57 6.0 13.0 0.00 0.00 0.00 77 1010.9
20260905211524 80 348 6.0 12.0 0.00 0.00 0.00 77 1010.9
20260905211022 80 72 5.0 12.0 0.00 0.00 0.00 76 1010.9
20260905210516 81 23 4.0 11.0 0.00 0.00 0.00 76 1010.9
20260905210233 81 335 4.0 11.0 0.00 0.00 0.00 76 1010.9
20260905205505 81 26 6.0 13.0 0.00 0.00 0.00 75 1010.9
20260905204954 81 5 6.0 13.0 0.00 0.00 0.00 75 1010.9
20260905204453 82 71 6.0 12.0 0.00 0.00 0.00 75 1010.9
20260905203947 81 49 6.0 11.0 0.00 0.00 0.00 75 1010.9
20260905203704 81 19 6.0 12.0 0.00 0.00 0.00 75 1010.9
20260905202935 82 342 6.0 14.0 0.00 0.00 0.00 74 1010.9
20260905202907 82 72 5.0 14.0 0.00 0.00 0.00 74 1010.9
20260905201923 83 22 5.0 11.0 0.00 0.00 0.00 74 1010.9
20260905201632 83 355 5.0 11.0 0.00 0.00 0.00 74 1010.9
20260905200911 82 20 5.0 12.0 0.00 0.00 0.00 75 1010.9
20260905200405 82 5 6.0 12.0 0.00 0.00 0.00 74 1010.9
20260905195857 82 9 5.0 12.0 0.00 0.00 0.00 73 1010.8
20260905195352 83 14 6.0 14.0 0.00 0.00 0.00 74 1010.8
20260905194842 83 67 7.0 14.0 0.00 0.00 0.00 74 1010.8
20260905194338 83 41 7.0 14.0 0.00 0.00 0.00 73 1010.9
20260905193825 82 340 7.0 14.0 0.00 0.00 0.00 74 1010.9
20260905193315 82 27 5.0 14.0 0.00 0.00 0.00 74 1010.9
20260905192815 82 67 4.0 10.0 0.00 0.00 0.00 75 1011.0
20260905192315 82 47 5.0 13.0 0.00 0.00 0.00 74 1011.0
20260905191815 82 38 5.0 13.0 0.00 0.00 0.00 74 1011.0
20260905191546 82 88 5.0 13.0 0.00 0.00 0.00 75 1011.1
20260905191043 82 51 6.0 11.0 0.00 0.00 0.00 74 1011.1
20260905190536 83 78 5.0 10.0 0.00 0.00 0.00 74 1011.1
20260905185816 83 57 5.0 10.0 0.00 0.00 0.00 74 1011.1
20260905185317 83 333 5.0 12.0 0.00 0.00 0.00 73 1011.1
20260905184810 83 49 5.0 12.0 0.00 0.00 0.00 72 1011.1
20260905184525 83 49 5.0 9.0 0.00 0.00 0.00 73 1011.1
20260905183754 83 65 6.0 11.0 0.00 0.00 0.00 72 1011.1